THA971 LSZH-VTBS

Flight info

Callsign THA971
Flight time 4h 41m
Altitude 33000
Route DEGES2R DEGES Z2 UMVEG DCT DIMLO DCT INVED DCT SOKRU DCT DINRO DCT UDROS UM859 KARDE UL851 TBN UM11 REBLO/N0483F350 M11 LUSAL N701 LARGI B701 TUGTA A909 LEMOD N644 DI A466 SULOM M890 LKN/N0489F370 R460 CEA L507 IGONI DCT WILLA WILLA1C
Aircraft B77W/H-SDE1E2E3FGHIJ2J3J4J5M1RWXY/LB1D1

Departure

Time 2026-05-05 16:37
Airport Zürich Airport (LSZH)

Arrival

Time 2026-05-05 21:19
Airport Suvarnabhumi Airport (VTBS)
Time Latitude Longitude Altitude Speed Heading
2026-05-05 15:55 47.46067 8.55242 1400 ft 0 kts
2026-05-05 16:22 47.46040 8.55235 1405 ft 2 kts 14°
2026-05-05 16:22 47.46010 8.55217 1410 ft 2 kts 36°
2026-05-05 16:23 47.45991 8.55179 1409 ft 2 kts 79°
2026-05-05 16:23 47.45990 8.55157 1409 ft 1 kts 95°
2026-05-05 16:23 47.45990 8.55153 1399 ft 0 kts 97°
2026-05-05 16:28 47.45990 8.55155 1399 ft 3 kts 97°
2026-05-05 16:28 47.45983 8.55240 1400 ft 10 kts 97°
2026-05-05 16:28 47.45975 8.55340 1406 ft 10 kts 95°
2026-05-05 16:29 47.45969 8.55440 1409 ft 10 kts 95°
2026-05-05 16:29 47.45963 8.55539 1413 ft 10 kts 95°
2026-05-05 16:29 47.45956 8.55639 1406 ft 10 kts 97°
2026-05-05 16:29 47.45948 8.55739 1412 ft 10 kts 97°
2026-05-05 16:30 47.45940 8.55838 1412 ft 10 kts 96°
2026-05-05 16:30 47.45911 8.55921 1418 ft 10 kts 156°
2026-05-05 16:30 47.45851 8.55962 1416 ft 10 kts 127°
2026-05-05 16:30 47.45835 8.56069 1417 ft 11 kts 96°
2026-05-05 16:31 47.45827 8.56181 1418 ft 11 kts 96°
2026-05-05 16:31 47.45819 8.56293 1425 ft 11 kts 96°
2026-05-05 16:31 47.45811 8.56405 1421 ft 11 kts 96°
2026-05-05 16:31 47.45803 8.56517 1425 ft 11 kts 96°
2026-05-05 16:32 47.45794 8.56635 1428 ft 12 kts 96°
2026-05-05 16:32 47.45785 8.56764 1425 ft 13 kts 96°
2026-05-05 16:32 47.45776 8.56889 1427 ft 10 kts 95°
2026-05-05 16:32 47.45774 8.56921 1428 ft 1 kts 96°
2026-05-05 16:33 47.45773 8.56935 1428 ft 1 kts 96°
2026-05-05 16:33 47.45772 8.56950 1428 ft 1 kts 96°
2026-05-05 16:33 47.45770 8.56964 1429 ft 1 kts 103°
2026-05-05 16:33 47.45767 8.56978 1429 ft 1 kts 111°
2026-05-05 16:34 47.45764 8.56985 1429 ft 0 kts 116°
2026-05-05 16:35 47.45750 8.57010 1429 ft 6 kts 140°
2026-05-05 16:35 47.45710 8.57027 1429 ft 6 kts 178°
2026-05-05 16:35 47.45671 8.56997 1429 ft 7 kts 236°
2026-05-05 16:35 47.45665 8.56939 1428 ft 3 kts 276°
2026-05-05 16:36 47.45665 8.56938 1428 ft 0 kts 276°
2026-05-05 16:36 47.45665 8.56934 1428 ft 1 kts 276°
2026-05-05 16:36 47.45666 8.56924 1428 ft 4 kts 276°
2026-05-05 16:36 47.45686 8.56703 1423 ft 53 kts 277°
2026-05-05 16:37 47.45756 8.55699 1411 ft 142 kts 276°
2026-05-05 16:37 47.45887 8.53892 1680 ft 194 kts 274°
2026-05-05 16:37 47.46046 8.51835 2646 ft 209 kts 276°
2026-05-05 16:37 47.46224 8.49651 3783 ft 214 kts 277°
2026-05-05 16:38 47.46390 8.47465 4425 ft 220 kts 267°
2026-05-05 16:38 47.45928 8.45228 4598 ft 242 kts 230°
2026-05-05 16:38 47.44509 8.43800 5079 ft 254 kts 200°
2026-05-05 16:38 47.42918 8.42648 5600 ft 259 kts 225°
2026-05-05 16:39 47.42010 8.40357 6220 ft 264 kts 254°
2026-05-05 16:39 47.41650 8.37684 6802 ft 266 kts 256°
2026-05-05 16:39 47.41033 8.35526 7220 ft 268 kts 228°
2026-05-05 16:39 47.39503 8.34050 7966 ft 267 kts 194°
2026-05-05 16:40 47.37654 8.34134 8645 ft 275 kts 161°
2026-05-05 16:40 47.36087 8.35780 9267 ft 287 kts 128°
2026-05-05 16:40 47.35331 8.38523 9861 ft 299 kts 96°
2026-05-05 16:40 47.35634 8.41608 10250 ft 317 kts 66°
2026-05-05 16:41 47.36950 8.44311 10427 ft 335 kts 44°
2026-05-05 16:41 47.38743 8.46692 10611 ft 358 kts 38°
2026-05-05 16:41 47.40784 8.49004 10812 ft 381 kts 36°
2026-05-05 16:41 47.42937 8.51398 11302 ft 394 kts 37°
2026-05-05 16:42 47.45133 8.53893 11964 ft 402 kts 37°
2026-05-05 16:42 47.47255 8.56589 12600 ft 404 kts 49°
2026-05-05 16:42 47.48663 8.60212 13133 ft 413 kts 75°
2026-05-05 16:42 47.49036 8.64374 13938 ft 409 kts 95°
2026-05-05 16:43 47.48576 8.68494 14692 ft 407 kts 111°
2026-05-05 16:43 47.47413 8.72281 15283 ft 403 kts 119°
2026-05-05 16:43 47.46538 8.76257 15587 ft 418 kts 99°
2026-05-05 16:43 47.46432 8.80572 16275 ft 422 kts 90°
2026-05-05 16:44 47.46543 8.84896 17015 ft 418 kts 94°
2026-05-05 16:44 47.46089 8.89131 17485 ft 418 kts 108°
2026-05-05 16:44 47.45296 8.93299 18054 ft 425 kts 108°
2026-05-05 16:44 47.44537 8.97547 18648 ft 429 kts 106°
2026-05-05 16:45 47.43874 9.01854 19322 ft 431 kts 105°
2026-05-05 16:45 47.43265 9.06196 19986 ft 433 kts 104°
2026-05-05 16:45 47.42664 9.10565 20600 ft 436 kts 104°
2026-05-05 16:45 47.42045 9.14974 21186 ft 440 kts 104°
2026-05-05 16:46 47.41479 9.19419 21686 ft 444 kts 99°
2026-05-05 16:46 47.41617 9.24030 22009 ft 456 kts 80°
2026-05-05 16:46 47.42396 9.28610 22495 ft 462 kts 77°
2026-05-05 16:46 47.43199 9.33210 23107 ft 463 kts 78°
2026-05-05 16:47 47.43959 9.37842 23706 ft 465 kts 79°
2026-05-05 16:47 47.44682 9.42512 24172 ft 468 kts 79°
2026-05-05 16:47 47.45388 9.47223 24586 ft 472 kts 80°
2026-05-05 16:47 47.46093 9.51976 24984 ft 475 kts 80°
2026-05-05 16:48 47.46734 9.56769 25429 ft 477 kts 84°
2026-05-05 16:48 47.47048 9.61647 25860 ft 477 kts 90°
2026-05-05 16:48 47.47040 9.66557 26202 ft 479 kts 97°
2026-05-05 16:48 47.46754 9.71468 26575 ft 481 kts 98°
2026-05-05 16:49 47.46443 9.76405 27001 ft 484 kts 98°
2026-05-05 16:49 47.46137 9.81367 27414 ft 486 kts 98°
2026-05-05 16:49 47.45841 9.86349 27792 ft 489 kts 98°
2026-05-05 16:49 47.45552 9.91371 28153 ft 492 kts 98°
2026-05-05 16:50 47.45265 9.96425 28519 ft 494 kts 98°
2026-05-05 16:50 47.44976 10.01496 28841 ft 497 kts 98°
2026-05-05 16:50 47.44684 10.06601 29042 ft 502 kts 98°
2026-05-05 16:50 47.44384 10.11772 29195 ft 507 kts 98°
2026-05-05 16:51 47.44076 10.16954 29652 ft 506 kts 99°
2026-05-05 16:51 47.43612 10.22083 30150 ft 500 kts 104°
2026-05-05 16:51 47.42922 10.27104 30516 ft 498 kts 106°
2026-05-05 16:51 47.42195 10.32110 30843 ft 499 kts 106°
2026-05-05 16:52 47.41477 10.37126 31132 ft 500 kts 106°
2026-05-05 16:52 47.40784 10.42154 31473 ft 500 kts 106°
2026-05-05 16:52 47.40105 10.47186 31716 ft 501 kts 105°
2026-05-05 16:52 47.39420 10.52239 31900 ft 503 kts 106°
2026-05-05 16:53 47.38722 10.57301 32153 ft 503 kts 106°
2026-05-05 16:53 47.38021 10.62362 32514 ft 503 kts 106°
2026-05-05 16:53 47.37320 10.67406 32809 ft 503 kts 106°
2026-05-05 16:53 47.36613 10.72471 32855 ft 505 kts 107°
2026-05-05 16:54 47.35204 10.82525 32850 ft 502 kts 107°
2026-05-05 16:54 47.33791 10.92563 32845 ft 498 kts 106°
2026-05-05 16:55 47.32374 11.02554 32834 ft 498 kts 106°
2026-05-05 16:55 47.30945 11.12559 32829 ft 499 kts 106°
2026-05-05 16:56 47.29505 11.22573 32840 ft 500 kts 107°
2026-05-05 16:56 47.28121 11.32152 32834 ft 500 kts 106°
2026-05-05 16:57 47.26728 11.41726 32834 ft 501 kts 106°
2026-05-05 16:57 47.25278 11.51762 32860 ft 502 kts 104°
2026-05-05 16:58 47.24343 11.60212 32857 ft 504 kts 102°
2026-05-05 16:58 47.23143 11.71792 32849 ft 504 kts 102°
2026-05-05 16:59 47.22233 11.80263 32851 ft 504 kts 103°
2026-05-05 16:59 47.21119 11.90445 32861 ft 504 kts 103°
2026-05-05 17:00 47.20095 12.00643 32867 ft 504 kts 102°
2026-05-05 17:00 47.19121 12.10853 32864 ft 504 kts 102°
2026-05-05 17:01 47.18135 12.21047 32882 ft 504 kts 102°
2026-05-05 17:01 47.17127 12.31234 32852 ft 503 kts 102°
2026-05-05 17:02 47.16105 12.41409 32867 ft 503 kts 102°
2026-05-05 17:02 47.15076 12.51555 32877 ft 502 kts 102°
2026-05-05 17:03 47.14042 12.61684 32880 ft 500 kts 102°
2026-05-05 17:03 47.12999 12.71770 32876 ft 500 kts 102°
2026-05-05 17:04 47.11952 12.81866 32898 ft 500 kts 102°
2026-05-05 17:04 47.10890 12.91964 32873 ft 501 kts 102°
2026-05-05 17:05 47.09818 13.02066 32905 ft 500 kts 102°
2026-05-05 17:05 47.08740 13.12166 32895 ft 502 kts 102°
2026-05-05 17:06 47.07657 13.22239 32880 ft 503 kts 102°
2026-05-05 17:06 47.06547 13.32432 32878 ft 502 kts 102°
2026-05-05 17:07 47.05438 13.42548 32909 ft 503 kts 102°
2026-05-05 17:07 47.04320 13.52660 32906 ft 502 kts 102°
2026-05-05 17:08 47.03202 13.62703 32922 ft 503 kts 102°
2026-05-05 17:08 47.02064 13.72828 32907 ft 503 kts 101°
2026-05-05 17:09 47.00918 13.82942 32913 ft 503 kts 101°
2026-05-05 17:09 46.99764 13.93044 32916 ft 503 kts 101°
2026-05-05 17:10 46.98600 14.03147 32918 ft 502 kts 102°
2026-05-05 17:10 46.97431 14.13224 32912 ft 502 kts 101°
2026-05-05 17:11 46.96254 14.23289 32915 ft 501 kts 101°
2026-05-05 17:11 46.95069 14.33326 32917 ft 500 kts 101°
2026-05-05 17:12 46.93878 14.43350 32919 ft 500 kts 101°
2026-05-05 17:12 46.92680 14.53358 32919 ft 499 kts 102°
2026-05-05 17:13 46.91472 14.63351 32911 ft 499 kts 102°
2026-05-05 17:13 46.90257 14.73336 32911 ft 499 kts 102°
2026-05-05 17:14 46.89035 14.83309 32923 ft 498 kts 102°
2026-05-05 17:14 46.87803 14.93294 32901 ft 501 kts 103°
2026-05-05 17:15 46.86551 15.03339 32892 ft 503 kts 101°
2026-05-05 17:15 46.85290 15.13411 32897 ft 504 kts 102°
2026-05-05 17:16 46.84014 15.23506 32902 ft 507 kts 102°
2026-05-05 17:16 46.82738 15.33546 32878 ft 495 kts 102°
2026-05-05 17:17 46.81485 15.43332 32890 ft 490 kts 102°
2026-05-05 17:17 46.80220 15.53125 32887 ft 492 kts 102°
2026-05-05 17:18 46.78940 15.62963 32893 ft 495 kts 102°
2026-05-05 17:18 46.77646 15.72849 32898 ft 497 kts 103°
2026-05-05 17:19 46.76340 15.82755 32925 ft 498 kts 103°
2026-05-05 17:19 46.75023 15.92673 32920 ft 498 kts 103°
2026-05-05 17:20 46.73697 16.02569 32911 ft 497 kts 103°
2026-05-05 17:20 46.72372 16.12444 32920 ft 496 kts 103°
2026-05-05 17:21 46.71039 16.22290 32918 ft 495 kts 103°
2026-05-05 17:22 46.69035 16.36954 32918 ft 494 kts 103°
2026-05-05 17:22 46.67716 16.46793 32919 ft 495 kts 102°
2026-05-05 17:23 46.66586 16.56678 32928 ft 495 kts 101°
2026-05-05 17:23 46.65494 16.66567 32932 ft 495 kts 101°
2026-05-05 17:24 46.64367 16.76459 32939 ft 495 kts 101°
2026-05-05 17:24 46.63215 16.86330 32923 ft 495 kts 101°
2026-05-05 17:25 46.62047 16.96207 32938 ft 495 kts 101°
2026-05-05 17:25 46.60873 17.06069 32934 ft 495 kts 102°
2026-05-05 17:26 46.59690 17.15934 32939 ft 495 kts 102°
2026-05-05 17:26 46.58498 17.25805 32922 ft 496 kts 101°
2026-05-05 17:27 46.57299 17.35670 32949 ft 496 kts 101°
2026-05-05 17:27 46.56087 17.45557 32937 ft 497 kts 101°
2026-05-05 17:28 46.54867 17.55442 32922 ft 498 kts 102°
2026-05-05 17:28 46.53635 17.65339 32927 ft 498 kts 101°
2026-05-05 17:29 46.52397 17.75225 32941 ft 498 kts 102°
2026-05-05 17:29 46.51150 17.85105 32943 ft 497 kts 102°
2026-05-05 17:30 46.49896 17.94970 32934 ft 497 kts 102°
2026-05-05 17:30 46.48632 18.04836 32929 ft 497 kts 102°
2026-05-05 17:31 46.47361 18.14688 32938 ft 497 kts 102°
2026-05-05 17:31 46.46091 18.24465 32934 ft 497 kts 102°
2026-05-05 17:32 46.44803 18.34317 32933 ft 497 kts 102°
2026-05-05 17:32 46.43505 18.44159 32927 ft 498 kts 102°
2026-05-05 17:33 46.42198 18.54021 32932 ft 498 kts 102°
2026-05-05 17:33 46.40881 18.63881 32927 ft 499 kts 102°
2026-05-05 17:34 46.39552 18.73761 32927 ft 500 kts 102°
2026-05-05 17:34 46.38213 18.83646 32919 ft 500 kts 102°
2026-05-05 17:35 46.36865 18.93531 32928 ft 501 kts 102°
2026-05-05 17:35 46.35489 19.03551 32921 ft 501 kts 102°
2026-05-05 17:36 46.32747 19.23323 32908 ft 501 kts 102°
2026-05-05 17:36 46.29968 19.43095 32922 ft 502 kts 102°
2026-05-05 17:37 46.27155 19.62847 32918 ft 502 kts 101°
2026-05-05 17:37 46.24306 19.82595 32922 ft 502 kts 102°
2026-05-05 17:38 46.21422 20.02325 32921 ft 502 kts 102°
2026-05-05 17:38 46.18506 20.22029 32921 ft 502 kts 102°
2026-05-05 17:39 46.15508 20.41700 32921 ft 502 kts 105°
2026-05-05 17:39 46.11416 20.60914 32941 ft 501 kts 107°
2026-05-05 17:40 46.07301 20.80076 32956 ft 500 kts 107°
2026-05-05 17:40 46.03195 20.99157 33004 ft 498 kts 107°
2026-05-05 17:41 46.00211 21.12902 33005 ft 497 kts 107°
2026-05-05 17:41 45.98140 21.22388 32973 ft 497 kts 107°
2026-05-05 17:42 45.96078 21.31792 32928 ft 496 kts 107°
2026-05-05 17:42 45.92160 21.49543 32945 ft 493 kts 107°
2026-05-05 17:43 45.87998 21.68236 32941 ft 491 kts 107°
2026-05-05 17:43 45.83820 21.86835 32949 ft 489 kts 107°
2026-05-05 17:44 45.79621 22.05371 32942 ft 488 kts 107°
2026-05-05 17:44 45.75394 22.23864 32964 ft 488 kts 107°
2026-05-05 17:45 45.71136 22.42339 32971 ft 489 kts 107°
2026-05-05 17:45 45.66841 22.60813 32970 ft 490 kts 107°
2026-05-05 17:46 45.62504 22.79322 32979 ft 492 kts 107°
2026-05-05 17:46 45.58866 22.94715 32967 ft 493 kts 107°
2026-05-05 17:47 45.54455 23.13249 32956 ft 494 kts 107°
2026-05-05 17:47 45.50014 23.31749 33003 ft 493 kts 107°
2026-05-05 17:48 45.45543 23.50218 33034 ft 493 kts 107°
2026-05-05 17:48 45.41037 23.68685 33034 ft 494 kts 107°
2026-05-05 17:49 45.36495 23.87145 33028 ft 494 kts 107°
2026-05-05 17:49 45.31927 24.05561 33005 ft 495 kts 107°
2026-05-05 17:50 45.27322 24.23974 33032 ft 494 kts 107°
2026-05-05 17:50 45.22692 24.42343 33011 ft 494 kts 107°
2026-05-05 17:51 45.18038 24.60656 33019 ft 493 kts 107°
2026-05-05 17:51 45.13364 24.78911 33013 ft 492 kts 107°
2026-05-05 17:52 45.08672 24.97093 33002 ft 491 kts 107°
2026-05-05 17:52 45.03980 25.15133 33040 ft 488 kts 107°
2026-05-05 17:53 44.99235 25.33155 33021 ft 489 kts 109°
2026-05-05 17:53 44.93208 25.50503 32994 ft 491 kts 114°
2026-05-05 17:54 44.87146 25.67597 33013 ft 490 kts 114°
2026-05-05 17:54 44.81056 25.84801 33001 ft 491 kts 114°
2026-05-05 17:55 44.74934 26.01973 32998 ft 491 kts 114°
2026-05-05 17:55 44.68781 26.19120 32995 ft 491 kts 114°
2026-05-05 17:56 44.62607 26.36220 32976 ft 492 kts 114°
2026-05-05 17:56 44.56408 26.53281 33065 ft 490 kts 115°
2026-05-05 17:57 44.50204 26.70251 33062 ft 489 kts 115°
2026-05-05 17:57 44.43971 26.87197 33014 ft 489 kts 115°
2026-05-05 17:58 44.37720 27.04086 33011 ft 488 kts 115°
2026-05-05 17:58 44.31454 27.20914 33028 ft 487 kts 116°
2026-05-05 17:59 44.25178 27.37665 33023 ft 486 kts 116°
2026-05-05 17:59 44.18898 27.54330 33026 ft 485 kts 117°
2026-05-05 18:00 44.12610 27.70911 33024 ft 484 kts 117°
2026-05-05 18:00 44.06310 27.87431 33051 ft 483 kts 117°
2026-05-05 18:01 43.99996 28.03888 33056 ft 482 kts 117°
2026-05-05 18:01 43.93659 28.20311 33049 ft 482 kts 117°
2026-05-05 18:02 43.87306 28.36678 33073 ft 482 kts 117°
2026-05-05 18:02 43.80934 28.53002 33053 ft 481 kts 117°
2026-05-05 18:03 43.74552 28.69258 33080 ft 480 kts 117°
2026-05-05 18:03 43.67875 28.85083 33090 ft 480 kts 124°
2026-05-05 18:04 43.59978 28.99967 33088 ft 480 kts 124°
2026-05-05 18:04 43.52119 29.14873 33078 ft 481 kts 124°
2026-05-05 18:05 43.44240 29.29783 33077 ft 482 kts 124°
2026-05-05 18:05 43.36330 29.44667 33093 ft 483 kts 123°
2026-05-05 18:06 43.28377 29.59557 33084 ft 484 kts 123°
2026-05-05 18:06 43.20378 29.74459 33079 ft 486 kts 124°
2026-05-05 18:07 43.12340 29.89356 33073 ft 486 kts 124°
2026-05-05 18:07 43.04274 30.04233 33066 ft 488 kts 123°
2026-05-05 18:08 42.96166 30.19112 33078 ft 488 kts 124°
2026-05-05 18:08 42.90782 30.28950 33064 ft 489 kts 123°
2026-05-05 18:09 42.86712 30.36367 33066 ft 489 kts 123°
2026-05-05 18:09 42.82632 30.43784 33062 ft 489 kts 123°
2026-05-05 18:10 42.78551 30.51189 33072 ft 489 kts 123°
2026-05-05 18:10 42.74896 30.58916 33071 ft 482 kts 110°
2026-05-05 18:11 42.72965 30.67546 33046 ft 473 kts 94°
2026-05-05 18:11 42.72133 30.76417 33068 ft 474 kts 94°
2026-05-05 18:12 42.71289 30.85253 33063 ft 475 kts 94°
2026-05-05 18:12 42.70393 30.94156 33061 ft 476 kts 94°
2026-05-05 18:13 42.69473 31.03065 33058 ft 476 kts 94°
2026-05-05 18:13 42.68544 31.11975 33071 ft 476 kts 95°
2026-05-05 18:14 42.67608 31.20894 33054 ft 477 kts 95°
2026-05-05 18:14 42.66666 31.29815 33055 ft 477 kts 95°
2026-05-05 18:15 42.65716 31.38740 33061 ft 477 kts 95°
2026-05-05 18:15 42.64760 31.47650 33078 ft 477 kts 95°
2026-05-05 18:16 42.63797 31.56566 33056 ft 477 kts 95°
2026-05-05 18:16 42.62827 31.65470 33051 ft 476 kts 95°
2026-05-05 18:17 42.61852 31.74363 33047 ft 476 kts 95°
2026-05-05 18:17 42.60870 31.83251 33071 ft 476 kts 95°
2026-05-05 18:18 42.59882 31.92139 33056 ft 476 kts 95°
2026-05-05 18:18 42.58887 32.01028 33051 ft 477 kts 95°
2026-05-05 18:19 42.57791 32.09900 33052 ft 477 kts 96°
2026-05-05 18:19 42.56563 32.20654 33070 ft 477 kts 95°
2026-05-05 18:20 42.54539 32.38464 33043 ft 478 kts 95°
2026-05-05 18:20 42.52452 32.56286 33071 ft 478 kts 95°
2026-05-05 18:21 42.50339 32.74098 33048 ft 479 kts 95°
2026-05-05 18:21 42.48196 32.91912 33051 ft 479 kts 95°
2026-05-05 18:22 42.46032 33.09686 33051 ft 479 kts 95°
2026-05-05 18:22 42.43851 33.27494 33078 ft 479 kts 95°
2026-05-05 18:23 42.41651 33.45292 33072 ft 479 kts 96°
2026-05-05 18:23 42.39385 33.63069 33056 ft 479 kts 96°
2026-05-05 18:24 42.37104 33.80797 33061 ft 478 kts 96°
2026-05-05 18:24 42.34806 33.98454 33058 ft 477 kts 96°
2026-05-05 18:25 42.32488 34.16106 33058 ft 477 kts 96°
2026-05-05 18:25 42.30144 34.33750 33061 ft 477 kts 96°
2026-05-05 18:26 42.27765 34.51277 33040 ft 479 kts 97°
2026-05-05 18:26 42.25326 34.68930 33042 ft 478 kts 97°
2026-05-05 18:27 42.22869 34.86567 33058 ft 478 kts 98°
2026-05-05 18:27 42.20394 35.04214 33058 ft 478 kts 98°
2026-05-05 18:28 42.16630 35.30668 33066 ft 479 kts 99°
2026-05-05 18:28 42.14086 35.48318 33073 ft 479 kts 99°
2026-05-05 18:29 42.11527 35.65937 33047 ft 479 kts 100°
2026-05-05 18:29 42.08946 35.83522 33052 ft 478 kts 100°
2026-05-05 18:30 42.06342 36.01063 33055 ft 478 kts 101°
2026-05-05 18:30 42.03711 36.18591 33056 ft 477 kts 101°
2026-05-05 18:31 42.01057 36.36077 33055 ft 477 kts 101°
2026-05-05 18:31 41.98378 36.53541 33056 ft 477 kts 102°
2026-05-05 18:32 41.96134 36.68033 33054 ft 476 kts 102°
2026-05-05 18:32 41.93412 36.85442 33055 ft 476 kts 102°
2026-05-05 18:33 41.90024 37.05684 33045 ft 475 kts 108°
2026-05-05 18:33 41.84954 37.21905 33038 ft 474 kts 114°
2026-05-05 18:34 41.80642 37.35521 33057 ft 473 kts 113°
2026-05-05 18:34 41.73408 37.58335 33053 ft 473 kts 114°
2026-05-05 18:35 41.61336 37.95870 33064 ft 475 kts 114°
2026-05-05 18:35 41.57769 38.06861 33792 ft 476 kts 115°
2026-05-05 18:35 41.52497 38.23023 34825 ft 475 kts 115°
2026-05-05 18:36 41.47151 38.39313 35119 ft 484 kts 115°
2026-05-05 18:36 41.43871 38.49263 35201 ft 483 kts 115°
2026-05-05 18:36 41.41208 38.57323 35062 ft 467 kts 115°
2026-05-05 18:37 41.37502 38.68489 35096 ft 455 kts 116°
2026-05-05 18:37 41.35229 38.75314 35167 ft 456 kts 116°
2026-05-05 18:37 41.32627 38.83142 35098 ft 468 kts 115°
2026-05-05 18:38 41.30003 38.91166 35065 ft 475 kts 115°
2026-05-05 18:38 41.21198 39.17905 35049 ft 476 kts 116°
2026-05-05 18:39 41.10034 39.49782 35064 ft 476 kts 117°
2026-05-05 18:39 40.99719 39.81957 35016 ft 480 kts 103°
2026-05-05 18:40 40.98582 40.17294 35044 ft 479 kts 95°
2026-05-05 18:40 40.97615 40.52465 35047 ft 477 kts 95°
2026-05-05 18:41 40.96548 40.87520 35045 ft 477 kts 95°
2026-05-05 18:41 40.95355 41.22527 35030 ft 476 kts 96°
2026-05-05 18:42 40.94063 41.57478 35104 ft 476 kts 96°
2026-05-05 18:42 40.92649 41.92755 35003 ft 483 kts 96°
2026-05-05 18:43 40.91119 42.28257 34986 ft 485 kts 97°
2026-05-05 18:43 40.89475 42.63847 34977 ft 485 kts 97°
2026-05-05 18:44 40.87715 42.99504 34957 ft 488 kts 97°
2026-05-05 18:44 40.85837 43.35330 35054 ft 490 kts 98°
2026-05-05 18:45 40.83859 43.71438 34982 ft 496 kts 96°
2026-05-05 18:45 40.82675 44.07878 34981 ft 496 kts 96°
2026-05-05 18:46 40.81367 44.44254 34978 ft 496 kts 97°
2026-05-05 18:46 40.79939 44.80643 34996 ft 496 kts 97°
2026-05-05 18:47 40.78408 45.16892 35011 ft 501 kts 97°
2026-05-05 18:47 40.76647 45.53691 34904 ft 503 kts 101°
2026-05-05 18:48 40.73254 45.90322 34897 ft 504 kts 102°
2026-05-05 18:48 40.69801 46.27087 34896 ft 507 kts 102°
2026-05-05 18:49 40.66212 46.63932 34980 ft 507 kts 103°
2026-05-05 18:49 40.62492 47.00898 34947 ft 510 kts 104°
2026-05-05 18:50 40.60101 47.38315 34960 ft 517 kts 98°
2026-05-05 18:50 40.58936 47.76135 34961 ft 517 kts 99°
2026-05-05 18:51 40.57475 48.13912 34899 ft 516 kts 100°
2026-05-05 18:51 40.55701 48.51537 34963 ft 515 kts 100°
2026-05-05 18:52 40.53822 48.89112 34954 ft 514 kts 101°
2026-05-05 18:52 40.51827 49.26568 35030 ft 512 kts 101°
2026-05-05 18:53 40.49738 49.63890 34924 ft 513 kts 101°
2026-05-05 18:53 40.47538 50.01191 34973 ft 511 kts 102°
2026-05-05 18:54 40.42932 50.37538 34909 ft 504 kts 108°
2026-05-05 18:54 40.37960 50.73755 34873 ft 503 kts 108°
2026-05-05 18:55 40.32922 51.09529 34930 ft 503 kts 109°
2026-05-05 18:55 40.27735 51.45552 34919 ft 503 kts 109°
2026-05-05 18:56 40.22424 51.81628 34854 ft 506 kts 109°
2026-05-05 18:56 40.17001 52.17707 34940 ft 504 kts 109°
2026-05-05 18:57 40.11485 52.53586 34984 ft 504 kts 109°
2026-05-05 18:57 40.05848 52.89491 34917 ft 505 kts 109°
2026-05-05 18:58 40.01528 53.25969 34896 ft 510 kts 103°
2026-05-05 18:58 39.97820 53.62476 34906 ft 507 kts 103°
2026-05-05 18:59 39.94011 53.98766 34933 ft 505 kts 103°
2026-05-05 18:59 39.90082 54.35091 34943 ft 507 kts 103°
2026-05-05 19:00 39.83524 54.70481 34872 ft 503 kts 111°
2026-05-05 19:00 39.79790 54.87961 34994 ft 501 kts 111°
2026-05-05 19:00 39.76046 55.05459 34981 ft 504 kts 111°
2026-05-05 19:01 39.68408 55.40682 34911 ft 510 kts 111°
2026-05-05 19:01 39.60537 55.76147 34916 ft 512 kts 111°
2026-05-05 19:02 39.52585 56.11618 34890 ft 512 kts 111°
2026-05-05 19:02 39.44566 56.46974 34855 ft 512 kts 111°
2026-05-05 19:03 39.36427 56.82281 34866 ft 512 kts 111°
2026-05-05 19:03 39.27409 57.17253 34824 ft 514 kts 112°
2026-05-05 19:04 39.18275 57.52352 34803 ft 518 kts 112°
2026-05-05 19:04 39.08985 57.87527 34794 ft 520 kts 112°
2026-05-05 19:05 38.99552 58.22757 34779 ft 522 kts 112°
2026-05-05 19:05 38.89983 58.58009 34785 ft 523 kts 112°
2026-05-05 19:06 38.77435 58.91382 34803 ft 519 kts 120°
2026-05-05 19:06 38.64375 59.24376 34793 ft 519 kts 120°
2026-05-05 19:07 38.51729 59.57491 34799 ft 518 kts 117°
2026-05-05 19:07 38.39349 59.90638 34817 ft 517 kts 117°
2026-05-05 19:08 38.26882 60.23602 34816 ft 516 kts 117°
2026-05-05 19:08 38.14431 60.56175 34834 ft 515 kts 117°
2026-05-05 19:09 38.01849 60.88744 34840 ft 513 kts 117°
2026-05-05 19:09 37.89219 61.21093 34841 ft 512 kts 117°
2026-05-05 19:10 37.76526 61.53269 34862 ft 511 kts 117°
2026-05-05 19:10 37.63771 61.85278 34875 ft 510 kts 117°
2026-05-05 19:11 37.55934 62.00038 34733 ft 510 kts 128°
2026-05-05 19:11 37.53763 62.03658 34784 ft 509 kts 128°
2026-05-05 19:11 37.49524 62.10775 34884 ft 507 kts 128°
2026-05-05 19:12 37.45307 62.17915 34874 ft 508 kts 128°
2026-05-05 19:12 37.41091 62.25061 34890 ft 509 kts 128°
2026-05-05 19:13 37.36863 62.32209 34893 ft 510 kts 128°
2026-05-05 19:13 37.32619 62.39365 34886 ft 511 kts 128°
2026-05-05 19:14 37.28367 62.46515 34886 ft 511 kts 128°
2026-05-05 19:14 37.24116 62.53649 34897 ft 511 kts 128°
2026-05-05 19:15 37.19850 62.60794 34897 ft 511 kts 128°
2026-05-05 19:15 37.15580 62.67930 34891 ft 511 kts 128°
2026-05-05 19:16 37.11307 62.75056 34891 ft 511 kts 128°
2026-05-05 19:16 37.07030 62.82173 34905 ft 511 kts 128°
2026-05-05 19:17 37.02210 62.90177 34915 ft 512 kts 128°
2026-05-05 19:17 36.93627 63.04380 34921 ft 512 kts 128°
2026-05-05 19:18 36.85025 63.18554 34922 ft 512 kts 128°
2026-05-05 19:18 36.76394 63.32718 34941 ft 513 kts 128°
2026-05-05 19:19 36.67739 63.46862 34947 ft 513 kts 128°
2026-05-05 19:19 36.59068 63.60973 34964 ft 513 kts 128°
2026-05-05 19:20 36.50381 63.75050 34976 ft 513 kts 128°
2026-05-05 19:20 36.41671 63.89108 34973 ft 514 kts 128°
2026-05-05 19:21 36.32938 64.03145 34975 ft 514 kts 128°
2026-05-05 19:21 36.25664 64.14793 34978 ft 514 kts 128°
2026-05-05 19:22 36.19217 64.25088 34981 ft 515 kts 128°
2026-05-05 19:22 36.14842 64.32111 34996 ft 515 kts 127°
2026-05-05 19:23 36.10593 64.39262 34997 ft 516 kts 126°
2026-05-05 19:23 36.06368 64.46447 34998 ft 517 kts 126°
2026-05-05 19:24 36.02114 64.53622 34999 ft 517 kts 126°
2026-05-05 19:24 35.97840 64.60782 35012 ft 518 kts 126°
2026-05-05 19:25 35.93557 64.67934 35011 ft 518 kts 126°
2026-05-05 19:25 35.89268 64.75083 35013 ft 518 kts 127°
2026-05-05 19:26 35.84975 64.82223 35027 ft 518 kts 127°
2026-05-05 19:26 35.80683 64.89352 35053 ft 517 kts 127°
2026-05-05 19:27 35.76391 64.96461 35050 ft 517 kts 127°
2026-05-05 19:27 35.72094 65.03566 35064 ft 517 kts 127°
2026-05-05 19:28 35.67797 65.10658 35098 ft 517 kts 127°
2026-05-05 19:28 35.63496 65.17742 35099 ft 517 kts 127°
2026-05-05 19:29 35.59183 65.24832 35121 ft 518 kts 127°
2026-05-05 19:29 35.54864 65.31916 35134 ft 518 kts 126°
2026-05-05 19:30 35.50468 65.39114 35139 ft 519 kts 127°
2026-05-05 19:30 35.41847 65.53182 35169 ft 520 kts 127°
2026-05-05 19:31 35.33137 65.67336 35176 ft 521 kts 127°
2026-05-05 19:31 35.24336 65.81586 35216 ft 521 kts 127°
2026-05-05 19:32 35.15616 65.95644 35231 ft 523 kts 127°
2026-05-05 19:32 35.06744 66.09891 35213 ft 524 kts 127°
2026-05-05 19:33 34.97961 66.23944 35216 ft 525 kts 127°
2026-05-05 19:33 34.89044 66.38035 35209 ft 525 kts 128°
2026-05-05 19:34 34.80086 66.52102 35191 ft 525 kts 128°
2026-05-05 19:35 34.66647 66.73131 35219 ft 525 kts 128°
2026-05-05 19:35 34.57664 66.87118 35227 ft 525 kts 128°
2026-05-05 19:36 34.48649 67.01065 35182 ft 526 kts 128°
2026-05-05 19:36 34.39584 67.14997 35185 ft 527 kts 128°
2026-05-05 19:37 34.30497 67.28926 35162 ft 528 kts 128°
2026-05-05 19:37 34.21394 67.42827 35178 ft 527 kts 128°
2026-05-05 19:38 34.12263 67.56706 35147 ft 528 kts 128°
2026-05-05 19:38 34.03118 67.70564 35157 ft 528 kts 128°
2026-05-05 19:39 33.93929 67.84376 35133 ft 528 kts 129°
2026-05-05 19:39 33.84711 67.98003 35128 ft 528 kts 129°
2026-05-05 19:40 33.75361 68.11809 35107 ft 529 kts 129°
2026-05-05 19:40 33.66033 68.25536 35085 ft 531 kts 129°
2026-05-05 19:41 33.56742 68.39157 35039 ft 531 kts 129°
2026-05-05 19:41 33.47212 68.52723 35012 ft 532 kts 130°
2026-05-05 19:42 33.37567 68.66222 35011 ft 534 kts 130°
2026-05-05 19:42 33.27911 68.79751 34998 ft 535 kts 129°
2026-05-05 19:43 33.18789 68.93834 35026 ft 537 kts 127°
2026-05-05 19:43 33.09692 69.07965 35028 ft 537 kts 127°
2026-05-05 19:44 33.00538 69.22064 35069 ft 537 kts 127°
2026-05-05 19:44 32.91379 69.36131 35042 ft 537 kts 127°
2026-05-05 19:45 32.82183 69.50178 35039 ft 539 kts 128°
2026-05-05 19:45 32.72928 69.64219 34999 ft 541 kts 128°
2026-05-05 19:46 32.63641 69.78271 35016 ft 540 kts 128°
2026-05-05 19:46 32.54337 69.92300 34993 ft 542 kts 128°
2026-05-05 19:47 32.45001 70.06321 34967 ft 543 kts 128°
2026-05-05 19:47 32.35627 70.20366 34916 ft 544 kts 127°
2026-05-05 19:48 32.26428 70.34612 34853 ft 546 kts 127°
2026-05-05 19:48 32.17197 70.48849 34873 ft 546 kts 127°
2026-05-05 19:49 32.07924 70.63069 34875 ft 547 kts 127°
2026-05-05 19:49 31.98628 70.77280 34875 ft 548 kts 127°
2026-05-05 19:50 31.89650 70.91750 34837 ft 547 kts 117°
2026-05-05 19:50 31.82661 71.07600 34874 ft 545 kts 116°
2026-05-05 19:51 31.75613 71.23272 34874 ft 546 kts 116°
2026-05-05 19:51 31.70585 71.34378 34854 ft 546 kts 116°
2026-05-05 19:52 31.67015 71.42252 34864 ft 546 kts 116°
2026-05-05 19:52 31.63444 71.50117 34869 ft 546 kts 116°
2026-05-05 19:53 31.59865 71.57980 34886 ft 546 kts 116°
2026-05-05 19:53 31.56274 71.65840 34877 ft 547 kts 116°
2026-05-05 19:54 31.52676 71.73684 34855 ft 546 kts 117°
2026-05-05 19:54 31.49075 71.81522 34867 ft 546 kts 117°
2026-05-05 19:55 31.45472 71.89352 34874 ft 546 kts 117°
2026-05-05 19:55 31.41863 71.97181 34884 ft 546 kts 117°
2026-05-05 19:56 31.38249 72.05003 34876 ft 546 kts 117°
2026-05-05 19:56 31.34634 72.12814 34869 ft 546 kts 117°
2026-05-05 19:57 31.28057 72.28592 34878 ft 538 kts 99°
2026-05-05 19:57 31.27350 72.34272 34920 ft 530 kts 88°
2026-05-05 19:57 31.28338 72.45545 34914 ft 520 kts 76°
2026-05-05 19:58 31.30344 72.62339 34921 ft 523 kts 77°
2026-05-05 19:58 31.32193 72.79245 34915 ft 524 kts 77°
2026-05-05 19:59 31.34039 72.96171 34938 ft 525 kts 77°
2026-05-05 19:59 31.35870 73.13150 34898 ft 526 kts 77°
2026-05-05 20:00 31.37683 73.30150 34919 ft 527 kts 78°
2026-05-05 20:00 31.39474 73.47168 34898 ft 527 kts 78°
2026-05-05 20:01 31.41244 73.64207 34894 ft 527 kts 78°
2026-05-05 20:01 31.42981 73.81245 34895 ft 527 kts 79°
2026-05-05 20:02 31.44523 73.98309 34888 ft 529 kts 85°
2026-05-05 20:02 31.44054 74.06954 34887 ft 535 kts 96°
2026-05-05 20:02 31.42490 74.15481 34886 ft 536 kts 101°
2026-05-05 20:03 31.39181 74.32448 34898 ft 534 kts 100°
2026-05-05 20:03 31.35971 74.49421 34915 ft 534 kts 100°
2026-05-05 20:04 31.32274 74.66278 34891 ft 536 kts 104°
2026-05-05 20:04 31.28044 74.82985 34881 ft 536 kts 104°
2026-05-05 20:05 31.23863 74.99715 34883 ft 536 kts 104°
2026-05-05 20:05 31.19662 75.16422 34840 ft 536 kts 105°
2026-05-05 20:06 31.15436 75.33120 34883 ft 536 kts 105°
2026-05-05 20:06 31.08481 75.57852 34896 ft 538 kts 111°
2026-05-05 20:07 30.99806 75.83573 34881 ft 538 kts 110°
2026-05-05 20:07 30.96613 75.93111 35375 ft 541 kts 111°
2026-05-05 20:07 30.95707 75.95809 35590 ft 540 kts 111°
2026-05-05 20:08 30.94338 75.99882 35906 ft 539 kts 111°
2026-05-05 20:08 30.92526 76.05264 36283 ft 539 kts 111°
2026-05-05 20:08 30.91599 76.08012 36448 ft 540 kts 111°
2026-05-05 20:08 30.90225 76.12080 36692 ft 541 kts 111°
2026-05-05 20:09 30.88847 76.16162 36840 ft 543 kts 111°
2026-05-05 20:09 30.86078 76.24343 36882 ft 542 kts 111°
2026-05-05 20:10 30.80757 76.40005 36888 ft 536 kts 111°
2026-05-05 20:10 30.69786 76.72058 37136 ft 537 kts 114°
2026-05-05 20:10 30.61736 76.86818 36970 ft 546 kts 130°
2026-05-05 20:11 30.52481 77.00804 36831 ft 543 kts 129°
2026-05-05 20:11 30.43457 77.14602 36790 ft 530 kts 132°
2026-05-05 20:11 30.32103 77.24683 36803 ft 507 kts 159°
2026-05-05 20:11 30.19369 77.31901 36942 ft 516 kts 158°
2026-05-05 20:12 30.06359 77.39474 36748 ft 531 kts 158°
2026-05-05 20:12 29.93691 77.48288 36748 ft 536 kts 146°
2026-05-05 20:12 29.82094 77.58885 36742 ft 526 kts 146°
2026-05-05 20:13 29.59278 77.79275 36903 ft 521 kts 147°
2026-05-05 20:13 29.47680 77.89590 36845 ft 534 kts 147°
2026-05-05 20:13 29.36891 77.99168 36896 ft 537 kts 147°
2026-05-05 20:13 29.25255 78.09468 36781 ft 531 kts 147°
2026-05-05 20:14 29.13547 78.19801 36807 ft 519 kts 147°
2026-05-05 20:14 28.90856 78.39722 36902 ft 524 kts 147°
2026-05-05 20:15 28.69162 78.58676 36969 ft 537 kts 147°
2026-05-05 20:15 28.63293 78.63793 36849 ft 525 kts 147°
2026-05-05 20:16 28.57520 78.68812 36865 ft 521 kts 148°
2026-05-05 20:16 28.51756 78.73814 36851 ft 521 kts 148°
2026-05-05 20:17 28.46050 78.78900 36844 ft 524 kts 143°
2026-05-05 20:17 28.40825 78.84744 36857 ft 529 kts 139°
2026-05-05 20:18 28.21428 79.06976 36834 ft 535 kts 140°
2026-05-05 20:18 28.00305 79.30873 36844 ft 538 kts 140°
2026-05-05 20:19 27.79068 79.54766 36845 ft 538 kts 140°
2026-05-05 20:19 27.58795 79.79756 36758 ft 541 kts 134°
2026-05-05 20:19 27.49163 79.92700 36865 ft 538 kts 135°
2026-05-05 20:20 27.39523 80.05533 36880 ft 536 kts 135°
2026-05-05 20:20 27.20223 80.31142 36826 ft 536 kts 135°
2026-05-05 20:21 27.00890 80.56645 36706 ft 536 kts 135°
2026-05-05 20:21 26.81582 80.81972 36752 ft 533 kts 136°
2026-05-05 20:22 26.63524 81.08391 36789 ft 534 kts 130°
2026-05-05 20:22 26.46135 81.34978 36834 ft 534 kts 131°
2026-05-05 20:23 26.28530 81.61730 36795 ft 535 kts 131°
2026-05-05 20:23 26.10873 81.88404 36819 ft 536 kts 131°
2026-05-05 20:24 25.93140 82.15038 36797 ft 536 kts 132°
2026-05-05 20:24 25.75357 82.41594 36812 ft 536 kts 132°
2026-05-05 20:25 25.57502 82.68110 36810 ft 536 kts 132°
2026-05-05 20:25 25.41836 82.96246 36760 ft 548 kts 113°
2026-05-05 20:26 25.31382 83.27879 36804 ft 548 kts 114°
2026-05-05 20:26 25.20706 83.59473 36813 ft 549 kts 114°
2026-05-05 20:27 25.09978 83.90979 36808 ft 548 kts 114°
2026-05-05 20:27 24.99189 84.22413 36811 ft 547 kts 114°
2026-05-05 20:28 24.88353 84.53739 36800 ft 546 kts 114°
2026-05-05 20:28 24.77480 84.84936 36887 ft 547 kts 114°
2026-05-05 20:28 24.70928 84.99888 36835 ft 537 kts 129°
2026-05-05 20:29 24.62427 85.13424 36825 ft 537 kts 129°
2026-05-05 20:29 24.45621 85.40589 36809 ft 537 kts 129°
2026-05-05 20:30 24.28773 85.67681 36855 ft 538 kts 129°
2026-05-05 20:30 24.11830 85.94779 36856 ft 539 kts 129°
2026-05-05 20:31 23.94841 86.21802 36928 ft 537 kts 129°
2026-05-05 20:31 23.78047 86.48921 36911 ft 540 kts 125°
2026-05-05 20:32 23.62531 86.76940 36871 ft 539 kts 125°
2026-05-05 20:32 23.46924 87.04817 36770 ft 537 kts 125°
2026-05-05 20:33 23.31559 87.32268 36840 ft 533 kts 125°
2026-05-05 20:33 23.16148 87.59649 36813 ft 529 kts 125°
2026-05-05 20:34 23.00792 87.86788 36814 ft 525 kts 125°
2026-05-05 20:34 22.85502 88.13670 36811 ft 522 kts 126°
2026-05-05 20:35 22.70236 88.40376 36820 ft 520 kts 126°
2026-05-05 20:35 22.53762 88.65946 36826 ft 517 kts 129°
2026-05-05 20:36 22.37043 88.91234 36822 ft 517 kts 130°
2026-05-05 20:36 22.20739 89.16849 36818 ft 519 kts 127°
2026-05-05 20:37 22.04756 89.42734 36829 ft 518 kts 128°
2026-05-05 20:37 21.88697 89.68563 36825 ft 518 kts 128°
2026-05-05 20:38 21.72621 89.94300 36826 ft 518 kts 128°
2026-05-05 20:38 21.56625 90.19789 36824 ft 517 kts 128°
2026-05-05 20:39 21.40508 90.45353 36838 ft 516 kts 128°
2026-05-05 20:39 21.24396 90.70815 36838 ft 515 kts 128°
2026-05-05 20:40 21.08274 90.96202 36821 ft 514 kts 128°
2026-05-05 20:40 20.92157 91.21467 36819 ft 513 kts 128°
2026-05-05 20:41 20.76038 91.46622 36828 ft 512 kts 128°
2026-05-05 20:41 20.59923 91.71662 36829 ft 511 kts 128°
2026-05-05 20:42 20.43790 91.96627 36823 ft 511 kts 127°
2026-05-05 20:42 20.27481 92.21371 36835 ft 510 kts 128°
2026-05-05 20:43 20.11114 92.46062 36821 ft 510 kts 128°
2026-05-05 20:43 19.94735 92.70664 36828 ft 510 kts 128°
2026-05-05 20:44 19.78285 92.95271 36834 ft 510 kts 128°
2026-05-05 20:44 19.61826 93.19792 36825 ft 510 kts 128°
2026-05-05 20:45 19.37077 93.56477 36843 ft 510 kts 128°
2026-05-05 20:45 19.20639 93.80721 36829 ft 510 kts 128°
2026-05-05 20:46 19.04054 94.05085 36842 ft 510 kts 128°
2026-05-05 20:46 18.87432 94.29408 36852 ft 510 kts 128°
2026-05-05 20:47 18.70799 94.53654 36868 ft 510 kts 128°
2026-05-05 20:47 18.54221 94.77905 36858 ft 510 kts 126°
2026-05-05 20:48 18.38136 95.02496 36850 ft 510 kts 127°
2026-05-05 20:48 18.21621 95.26721 36825 ft 509 kts 129°
2026-05-05 20:49 18.04618 95.50557 36829 ft 509 kts 128°
2026-05-05 20:49 17.87629 95.74362 36831 ft 510 kts 128°
2026-05-05 20:50 17.73462 95.94146 36846 ft 510 kts 128°
2026-05-05 20:50 17.53477 96.21957 36834 ft 511 kts 127°
2026-05-05 20:51 17.36479 96.45525 36834 ft 510 kts 128°
2026-05-05 20:51 17.19259 96.68972 36832 ft 507 kts 128°
2026-05-05 20:52 17.02030 96.92229 36848 ft 504 kts 128°
2026-05-05 20:52 16.84885 97.15298 36847 ft 501 kts 128°
2026-05-05 20:53 16.67801 97.38208 36842 ft 499 kts 128°
2026-05-05 20:53 16.50759 97.60989 36854 ft 498 kts 128°
2026-05-05 20:54 16.33288 97.82931 36823 ft 497 kts 140°
2026-05-05 20:54 16.12325 98.01621 36963 ft 494 kts 139°
2026-05-05 20:55 16.01867 98.11022 36841 ft 497 kts 139°
2026-05-05 20:55 15.91393 98.20415 36863 ft 497 kts 139°
2026-05-05 20:55 15.70463 98.39149 36898 ft 496 kts 139°
2026-05-05 20:56 15.49553 98.57825 36887 ft 495 kts 137°
2026-05-05 20:56 15.32007 98.79643 36913 ft 492 kts 129°
2026-05-05 20:57 15.17649 98.97939 36906 ft 492 kts 129°
2026-05-05 20:57 15.01117 99.18965 36885 ft 492 kts 129°
2026-05-05 20:58 14.96103 99.25331 36776 ft 487 kts 129°
2026-05-05 20:58 14.94665 99.27156 36569 ft 481 kts 129°
2026-05-05 20:58 14.92556 99.29832 35949 ft 481 kts 129°
2026-05-05 20:59 14.89740 99.33404 34871 ft 486 kts 129°
2026-05-05 20:59 14.88254 99.35288 34392 ft 487 kts 129°
2026-05-05 20:59 14.83987 99.40692 33281 ft 481 kts 129°
2026-05-05 20:59 14.79796 99.45980 32395 ft 470 kts 129°
2026-05-05 21:00 14.75689 99.51161 31448 ft 462 kts 129°
2026-05-05 21:00 14.71651 99.56253 30512 ft 454 kts 129°
2026-05-05 21:00 14.67681 99.61258 29598 ft 447 kts 129°
2026-05-05 21:00 14.63819 99.66124 28599 ft 440 kts 129°
2026-05-05 21:01 14.59964 99.70978 27614 ft 434 kts 129°
2026-05-05 21:01 14.56165 99.75758 26683 ft 428 kts 129°
2026-05-05 21:01 14.52419 99.80470 25752 ft 417 kts 129°
2026-05-05 21:01 14.48803 99.85016 24190 ft 406 kts 129°
2026-05-05 21:02 14.45353 99.89584 22384 ft 400 kts 121°
2026-05-05 21:02 14.43153 99.94758 20671 ft 390 kts 105°
2026-05-05 21:02 14.41890 100.00124 19110 ft 380 kts 103°
2026-05-05 21:02 14.40636 100.05317 17933 ft 361 kts 104°
2026-05-05 21:03 14.39442 100.10116 17296 ft 333 kts 104°
2026-05-05 21:03 14.38267 100.14810 16914 ft 341 kts 104°
2026-05-05 21:03 14.37084 100.19544 16170 ft 340 kts 104°
2026-05-05 21:03 14.35910 100.24235 15422 ft 336 kts 104°
2026-05-05 21:04 14.34746 100.28885 14727 ft 333 kts 104°
2026-05-05 21:04 14.33597 100.33469 14085 ft 328 kts 104°
2026-05-05 21:04 14.32464 100.37988 13488 ft 323 kts 104°
2026-05-05 21:04 14.31341 100.42465 12719 ft 321 kts 104°
2026-05-05 21:05 14.30228 100.46893 12027 ft 317 kts 104°
2026-05-05 21:05 14.29508 100.49755 11582 ft 314 kts 104°
2026-05-05 21:05 14.28881 100.52249 11197 ft 312 kts 104°
2026-05-05 21:05 14.28341 100.54397 11009 ft 310 kts 104°
2026-05-05 21:06 14.27799 100.56548 10992 ft 310 kts 104°
2026-05-05 21:06 14.27259 100.58695 10775 ft 309 kts 104°
2026-05-05 21:06 14.26721 100.60833 10459 ft 307 kts 104°
2026-05-05 21:06 14.26186 100.62953 10137 ft 305 kts 104°
2026-05-05 21:07 14.25658 100.65050 9938 ft 294 kts 104°
2026-05-05 21:07 14.24931 100.66924 9743 ft 273 kts 125°
2026-05-05 21:07 14.23636 100.68279 9394 ft 261 kts 143°
2026-05-05 21:07 14.22210 100.69344 8970 ft 254 kts 143°
2026-05-05 21:08 14.20780 100.70400 8448 ft 251 kts 144°
2026-05-05 21:08 14.19363 100.71445 7925 ft 250 kts 144°
2026-05-05 21:08 14.17951 100.72488 7409 ft 249 kts 144°
2026-05-05 21:08 14.16544 100.73530 6958 ft 251 kts 144°
2026-05-05 21:09 14.15132 100.74577 6719 ft 248 kts 144°
2026-05-05 21:09 14.13754 100.75600 6566 ft 241 kts 144°
2026-05-05 21:09 14.12414 100.76597 6389 ft 235 kts 144°
2026-05-05 21:09 14.11097 100.77578 6120 ft 233 kts 144°
2026-05-05 21:10 14.09785 100.78554 5818 ft 232 kts 144°
2026-05-05 21:10 14.08483 100.79524 5631 ft 225 kts 144°
2026-05-05 21:10 14.07236 100.80453 5633 ft 222 kts 144°
2026-05-05 21:10 14.05958 100.81405 5665 ft 231 kts 144°
2026-05-05 21:11 14.04638 100.82387 5662 ft 237 kts 144°
2026-05-05 21:11 14.03296 100.83386 5440 ft 239 kts 144°
2026-05-05 21:11 14.01899 100.84273 5126 ft 234 kts 162°
2026-05-05 21:11 14.00303 100.84313 4780 ft 230 kts 194°
2026-05-05 21:12 13.98771 100.83899 4474 ft 228 kts 193°
2026-05-05 21:12 13.97227 100.83511 4150 ft 229 kts 193°
2026-05-05 21:12 13.95716 100.83120 4047 ft 218 kts 194°
2026-05-05 21:12 13.94265 100.82738 3994 ft 210 kts 194°
2026-05-05 21:13 13.92890 100.82374 4004 ft 200 kts 194°
2026-05-05 21:13 13.91551 100.82019 4041 ft 198 kts 194°
2026-05-05 21:13 13.90208 100.81664 4005 ft 200 kts 194°
2026-05-05 21:13 13.88845 100.81303 3781 ft 204 kts 194°
2026-05-05 21:14 13.87479 100.80941 3536 ft 201 kts 194°
2026-05-05 21:14 13.86152 100.80590 3308 ft 194 kts 194°
2026-05-05 21:14 13.84879 100.80254 3055 ft 189 kts 194°
2026-05-05 21:14 13.83616 100.79920 2810 ft 188 kts 194°
2026-05-05 21:15 13.82325 100.79578 2578 ft 190 kts 194°
2026-05-05 21:15 13.81067 100.79246 2333 ft 188 kts 195°
2026-05-05 21:15 13.79821 100.78916 2082 ft 182 kts 195°
2026-05-05 21:15 13.78620 100.78598 1847 ft 174 kts 195°
2026-05-05 21:16 13.77476 100.78296 1641 ft 165 kts 195°
2026-05-05 21:16 13.76395 100.78011 1411 ft 150 kts 195°
2026-05-05 21:16 13.75408 100.77750 1271 ft 148 kts 195°
2026-05-05 21:16 13.74388 100.77480 1059 ft 150 kts 195°
2026-05-05 21:17 13.73397 100.77216 877 ft 149 kts 195°
2026-05-05 21:17 13.72411 100.76955 689 ft 150 kts 194°
2026-05-05 21:17 13.71688 100.76767 561 ft 150 kts 194°
2026-05-05 21:17 13.70681 100.76502 361 ft 149 kts 194°
2026-05-05 21:18 13.69681 100.76240 160 ft 148 kts 194°
2026-05-05 21:18 13.68690 100.75980 27 ft 142 kts 195°
2026-05-05 21:18 13.67826 100.75750 16 ft 117 kts 194°
2026-05-05 21:18 13.67111 100.75563 18 ft 95 kts 194°
2026-05-05 21:19 13.66776 100.75441 17 ft 22 kts 215°
2026-05-05 21:19 13.66691 100.75371 18 ft 12 kts 222°
2026-05-05 21:19 13.66651 100.75299 18 ft 12 kts 279°
2026-05-05 21:19 13.66724 100.75271 17 ft 13 kts 10°
2026-05-05 21:20 13.66809 100.75292 17 ft 13 kts 14°
2026-05-05 21:20 13.66894 100.75314 17 ft 13 kts 14°
2026-05-05 21:20 13.66987 100.75339 17 ft 15 kts 14°
2026-05-05 21:20 13.67098 100.75369 18 ft 18 kts 14°
2026-05-05 21:21 13.67225 100.75401 18 ft 20 kts 14°
2026-05-05 21:21 13.67369 100.75439 18 ft 23 kts 14°
2026-05-05 21:21 13.67529 100.75481 18 ft 25 kts 14°
2026-05-05 21:21 13.67701 100.75527 18 ft 27 kts 14°
2026-05-05 21:22 13.67889 100.75576 18 ft 29 kts 14°
2026-05-05 21:22 13.68065 100.75622 17 ft 25 kts 14°
2026-05-05 21:22 13.68236 100.75667 18 ft 25 kts 14°
2026-05-05 21:22 13.68388 100.75707 18 ft 12 kts 14°
2026-05-05 21:23 13.68451 100.75664 18 ft 12 kts 288°
2026-05-05 21:23 13.68474 100.75578 19 ft 13 kts 284°
2026-05-05 21:23 13.68498 100.75481 18 ft 18 kts 285°
2026-05-05 21:23 13.68533 100.75347 18 ft 20 kts 284°
2026-05-05 21:24 13.68567 100.75212 18 ft 19 kts 284°
2026-05-05 21:24 13.68615 100.75145 18 ft 11 kts 350°
2026-05-05 21:24 13.68694 100.75160 18 ft 12 kts 14°
2026-05-05 21:24 13.68772 100.75180 18 ft 12 kts 14°
2026-05-05 21:25 13.68850 100.75200 18 ft 12 kts 14°
2026-05-05 21:25 13.68929 100.75211 18 ft 12 kts 336°
2026-05-05 21:25 13.68963 100.75146 18 ft 8 kts 285°
2026-05-05 21:25 13.68992 100.75125 18 ft 6 kts 355°
2026-05-05 21:26 13.69029 100.75132 18 ft 3 kts 13°
2026-05-05 21:26 13.69049 100.75137 18 ft 3 kts 14°
2026-05-05 21:26 13.69050 100.75137 18 ft 0 kts 14°